Location: ?ejkovice
(49.0137°N, 14.3821°E)
Time: 18:29:52
(UTC+00:00)

Cosmos 968 Rocket - Pass Details

Date: 08 August 2024
Orbit: 738 x 767 km, 74.0° (Epoch: 11 September)

Event Time Altitude Azimuth Distance (km) Brightness Sun altitude
Rises 19:40:23 0° 339° (NNW) 3,232 7.9 -10.6°
Reaches altitude 10° 19:42:50 10° 344° (NNW) 2,297 6.9 -10.9°
Maximum altitude 19:47:56 55° 62° (ENE) 906 3.8 -11.5°
Enters shadow 19:51:51 17° 136° (SE) 1,847 4.8 -12.0°
